SCP
9 10 12 12 10 9 9 8 7 6 7 6 5 3 3 2 2 1 1 1 1 1 1 1 1 1 1 1 1 1 1 1 1 1 1 1 0 0 0 0 0 0 0
9 10 11 12 11 9 10 9 8 7 7 6 5 3 3 2 2 1 1 1 1 1 1 1 1 1 1 1 1 1 1 1 1 1 1 1 0 0 0 0 0 0 0
8 9 10 10 9 9 9 9 8 7 7 6 4 4 3 3 2 1 1 1 1 1 1 1 1 1 1 1 1 1 1 1 1 1 1 0 0 0 0 0 0 0 0
6 6 7 6 5 5 6 8 8 7 6 5 4 3 3 3 2 1 0 0 0 0 0 0 0 0 0 0 0 0 0 0 0 0 0 0 0 0 0 0 0 0 0
3 3 4 3 2 2 4 6 6 5 4 4 3 3 2 2 1 0 0 0 0 0 0 0 0 0 0 0 0 0 0 0 0 0 0 0 0 0 0 0 0 0 0
1 1 1 1 1 1 2 3 3 2 2 2 2 2 1 1 0 0 0 0 0 0 0 0 0 0 0 0 0 0 0 0 0 0 0 0 0 0 0 0 0 0 0
0 0 0 0 0 0 0 0 0 0 0 1 1 1 1 0 0 0 0 0 0 0 0 0 0 0 0 0 0 0 0 0 0 0 0 0 0 0 0 0 0 0 0
0 0 0 0 0 0 0 0 0 0 0 0 0 0 0 0 0 0 0 0 0 0 0 0 0 0 0 0 0 0 0 0 0 0 0 0 0 0 0 0 0 0 0
0 0 0 0 0 0 0 0 0 0 0 0 0 0 0 0 0 0 0 0 0 0 0 0 0 0 0 0 0 0 0 0 0 0 0 0 0 0 0 0 0 0 0
0 0 0 0 0 0 0 0 0 0 0 0 0 0 0 0 0 0 0 0 0 0 0 0 0 0 0 0 0 0 0 0 0 0 0 0 0 0 0 0 0 0 0
0 0 0 0 0 0 0 0 0 0 0 0 0 0 0 0 0 0 0 0 0 0 0 0 0 0 0 0 0 0 0 0 0 0 0 0 0 0 0 0 0 0 0
0 0 0 0 0 0 0 0 0 0 0 0 0 0 0 0 0 0 0 0 0 0 0 0 0 0 0 0 0 0 0 0 0 0 0 0 0 0 0 0 0 0 0
0 0 0 0 0 0 0 0 0 0 0 0 0 0 0 0 0 0 0 0 0 0 0 0 0 0 0 0 0 0 0 0 0 0 0 0 0 0 0 0 0 0 0
0 0 0 0 0 0 0 0 0 0 0 0 0 0 0 0 0 0 0 0 0 0 0 0 0 0 0 0 0 0 0 0 0 0 0 0 0 0 0 0 0 0 0
0 0 0 0 0 0 0 0 0 0 0 0 0 0 0 0 0 0 0 0 0 0 0 0 0 0 0 0 0 0 0 0 0 0 0 0 0 0 0 0 0 0 0
0 0 0 0 0 0 0 0 0 0 0 0 0 0 0 0 0 0 0 0 0 0 0 0 0 0 0 0 0 0 0 0 0 0 0 0 0 0 0 0 0 0 0
0 0 0 0 0 0 0 0 0 0 0 0 0 0 0 0 0 0 0 0 0 0 0 0 0 0 0 0 0 0 0 0 0 0 0 0 0 0 0 0 0 0 0
0 0 0 0 0 0 0 0 0 0 0 0 0 0 0 0 0 0 0 0 0 0 0 0 0 0 0 0 0 0 0 0 0 0 0 0 0 0 0 0 0 0 0
0 0 0 0 0 0 0 0 0 0 0 0 0 0 0 0 0 0 0 0 0 0 0 0 0 0 0 0 0 0 0 0 0 0 0 0 0 0 0 0 0 0 0
0 0 0 0 0 0 0 0 0 0 0 0 0 0 0 0 0 0 0 0 0 0 0 0 0 -0 0 0 0 0 0 0 0 0 0 0 0 0 0 0 0 0 0
0 0 0 0 0 0 0 0 0 0 0 0 0 0 0 0 0 0 0 0 0 0 0 0 0 0 0 0 0 0 0 0 0 0 0 0 0 0 0 0 0 0 0
0 0 0 0 0 0 0 0 0 0 0 0 0 0 0 0 0 0 0 0 0 0 0 0 0 0 0 0 0 0 0 0 0 0 0 0 0 0 0 0 0 0 0
0 0 0 0 0 0 0 0 0 0 0 0 0 0 0 0 0 0 0 0 0 0 0 0 0 0 0 0 0 0 0 0 0 0 0 0 0 0 0 0 0 0 0
0 0 0 0 0 0 0 0 0 0 0 0 0 0 0 0 0 0 0 0 0 0 0 0 0 0 0 0 0 0 0 0 0 0 0 0 0 0 0 0 0 0 0
0 0 0 0 0 0 0 0 0 0 0 0 0 0 0 0 0 0 0 0 0 0 0 0 0 0 0 0 0 0 0 0 0 0 0 0 0 0 0 0 0 0 0
0 0 0 0 0 0 0 0 0 0 0 0 0 0 0 0 0 0 0 0 0 0 0 0 0 0 0 0 0 0 0 0 0 0 0 0 0 0 0 0 0 0 0
Wind_Speed
7 7 8 8 8 7 6 4 4 7 7 5 6 5 4 4 5 5 6 5 5 4 4 4 4 4 3 2 2 2 3 2 1 2 2 2 2 3 2 2 3 3 2
10 11 10 10 9 8 6 4 3 3 5 4 4 5 6 6 5 5 7 7 6 6 5 6 5 4 3 4 4 3 2 2 2 2 1 1 2 2 3 2 2 3 2
12 12 12 11 9 9 8 6 6 4 4 5 6 7 6 5 5 6 6 8 9 9 8 8 6 5 5 4 4 4 2 1 2 2 2 2 1 0 2 3 3 3 3
12 12 13 12 11 10 10 9 9 7 6 6 7 8 7 6 6 6 7 9 10 10 10 8 8 7 6 6 5 6 4 3 2 2 3 2 1 1 0 1 2 2 3
12 13 12 12 11 10 10 10 11 9 8 9 8 9 9 9 7 7 9 9 9 10 10 9 8 8 7 7 7 7 7 5 4 3 2 3 3 3 1 1 2 2 2
11 13 12 12 11 11 11 11 11 10 10 11 11 11 11 11 10 9 9 8 7 7 9 10 8 8 7 7 7 7 9 7 7 6 5 4 3 2 2 1 1 2 2
11 13 13 12 11 12 12 12 12 12 12 12 12 11 11 11 11 9 9 8 7 7 8 8 8 7 7 7 7 8 9 9 9 8 5 5 5 3 2 2 2 2 2
12 13 12 11 11 12 12 12 12 12 12 13 13 12 11 9 9 10 9 8 7 7 7 8 9 9 8 8 7 8 8 8 8 9 6 5 5 4 4 2 2 2 3
11 12 12 11 11 13 13 12 12 13 13 13 13 13 12 12 12 11 9 8 7 7 8 9 9 8 8 8 7 7 7 6 6 6 6 5 4 4 4 3 2 2 1
11 11 11 11 11 12 12 12 12 13 12 12 11 11 12 12 11 10 10 9 8 7 8 8 8 8 8 7 7 6 6 6 5 4 5 5 3 4 4 3 3 2 2
10 10 10 10 11 11 11 11 12 12 11 11 11 11 11 10 10 9 9 8 7 7 7 7 7 7 7 6 6 5 5 6 5 5 5 5 4 4 4 3 3 3 2
11 11 10 10 10 11 11 11 10 11 10 10 10 10 10 9 9 8 7 7 7 6 6 7 7 7 7 6 6 6 6 5 5 4 5 4 4 5 4 3 4 3 2
12 11 10 10 10 10 10 9 9 9 9 9 10 10 9 8 7 7 6 6 6 6 6 7 7 6 6 6 6 5 5 4 4 3 3 2 3 4 3 3 3 2 3
11 10 10 9 9 8 8 9 8 7 8 8 8 8 6 6 6 5 5 5 5 6 6 6 6 6 6 6 6 5 5 5 4 4 3 2 1 1 2 2 3 2 3
11 11 10 9 8 8 7 7 7 6 7 7 7 6 5 5 5 5 5 4 5 6 5 5 5 5 5 5 5 5 5 5 5 5 4 3 2 2 2 2 2 2 2
12 11 10 9 8 8 7 7 6 6 6 6 6 5 5 5 5 4 4 5 5 5 5 5 5 5 4 6 8 6 4 4 4 4 4 3 2 4 7 8 8 5 3
12 11 9 7 7 6 7 6 6 6 6 5 5 5 5 5 4 5 5 5 4 4 5 4 4 4 4 8 9 9 4 4 4 3 3 2 2 4 4 7 9 8 9
11 9 8 7 6 5 5 5 6 5 5 5 5 5 5 5 4 4 4 3 3 3 2 2 2 2 4 7 9 9 6 4 5 4 2 1 2 3 4 5 6 7 7
9 8 6 6 6 6 5 6 5 5 5 5 5 5 5 5 4 4 2 1 2 2 1 2 2 1 2 5 8 8 4 4 6 5 4 2 2 6 6 5 6 8 7
8 7 6 6 6 4 5 6 6 5 5 5 5 5 5 5 4 2 1 1 1 1 2 2 2 1 0 4 6 7 3 4 4 5 5 5 6 9 8 4 4 6 7
8 7 7 5 4 5 6 6 6 5 5 5 5 4 4 4 3 1 1 1 2 2 2 2 1 1 0 3 6 7 2 2 4 4 4 5 11 12 11 7 4 7 8
7 7 6 5 4 5 7 6 5 4 5 5 5 4 3 2 3 3 3 3 3 3 2 2 1 1 2 4 6 8 7 4 2 4 5 7 13 13 11 6 6 9 6
6 5 6 6 5 5 6 6 4 4 5 5 4 3 3 3 3 3 4 3 4 3 2 2 1 1 2 3 7 8 9 9 3 4 9 11 12 10 6 8 10 6 3
6 6 7 6 5 4 5 5 4 5 5 4 3 3 3 3 3 3 3 3 3 3 3 2 2 1 2 3 4 5 5 7 6 6 9 11 10 8 7 7 6 4 3
5 6 6 6 5 4 4 4 4 5 4 3 2 2 2 3 3 3 2 3 2 2 3 2 1 0 2 4 5 5 5 5 5 5 4 4 5 6 6 5 5 5 5
6 6 6 6 5 5 4 4 4 4 4 2 2 2 2 2 3 3 2 3 2 2 3 3 2 2 4 7 8 9 9 9 5 2 3 3 4 4 5 5 5 5 5
Wind_Direction
79 80 85 88 89 88 91 102 132 145 149 150 138 122 115 100 85 76 68 72 74 81 84 80 70 69 76 74 74 87 69 41 25 69 48 46 63 69 70 72 70 61 57
66 66 68 76 74 75 73 79 60 149 155 148 133 118 114 99 89 77 67 60 65 66 73 73 69 60 65 51 43 61 85 51 35 95 99 32 21 44 51 53 65 64 56
67 62 58 58 59 60 56 52 37 36 93 117 115 110 101 96 85 72 64 52 56 61 61 64 66 59 65 64 48 48 79 97 39 44 111 141 209 355 37 43 46 51 51
64 63 60 54 50 50 53 52 47 40 54 83 104 115 114 107 95 94 85 67 57 59 61 60 62 59 55 55 49 49 50 70 61 35 33 59 89 126 45 33 31 41 46
66 64 60 59 51 50 56 51 51 41 52 67 80 90 94 99 99 93 85 74 62 60 64 61 58 60 57 54 52 52 54 56 62 51 30 34 38 36 79 32 355 6 17
67 66 60 57 52 50 55 56 57 46 57 70 74 89 103 107 103 92 85 74 66 59 59 66 63 60 59 55 55 58 58 56 59 56 49 47 48 28 40 55 6 352 347
66 62 59 56 53 53 55 57 62 55 54 66 72 79 92 97 97 93 86 83 74 66 57 62 63 60 58 57 58 62 59 55 58 56 52 50 46 35 38 60 31 10 347
71 68 63 60 57 57 55 60 64 63 58 64 68 70 77 83 83 82 84 82 79 74 69 68 66 62 60 60 57 60 59 58 59 58 54 50 39 38 41 52 57 34 1
78 76 72 68 64 64 61 62 68 69 67 70 73 72 75 81 85 84 82 81 79 79 71 69 66 62 59 56 57 59 55 57 57 55 52 50 34 34 36 41 61 92 44
85 81 77 74 71 71 70 69 71 73 72 73 77 81 78 80 83 84 83 81 77 73 70 66 64 59 54 53 56 55 51 53 45 47 48 43 30 30 28 31 36 61 111
96 88 83 80 79 77 76 75 74 76 76 77 79 81 79 79 80 80 79 78 75 72 70 67 66 60 52 46 48 48 52 54 46 43 49 41 38 32 21 25 32 33 66
102 96 92 88 84 82 81 80 80 80 80 81 82 82 80 80 81 80 78 77 76 71 71 68 64 61 55 46 47 45 44 49 47 41 44 34 42 34 23 28 28 22 37
108 104 100 96 93 91 90 88 86 87 85 85 85 82 79 80 80 80 77 75 75 73 71 71 67 60 51 44 38 39 38 34 30 32 40 28 44 27 13 19 14 357 3
114 111 106 103 101 100 98 97 93 91 92 88 86 83 81 81 82 81 77 75 78 81 82 78 73 64 54 44 32 30 32 21 10 6 9 10 41 28 2 1 346 339 344
119 117 113 109 106 104 102 103 101 97 97 93 89 89 87 85 83 78 74 72 76 88 93 86 71 62 56 39 33 22 22 13 3 359 0 359 32 29 358 339 317 324 320
125 122 118 115 114 115 113 109 107 105 104 102 102 100 93 89 86 84 78 74 74 81 85 79 71 56 44 28 28 28 15 6 2 351 345 342 20 6 358 345 336 320 292
129 124 121 120 119 117 116 116 116 112 108 108 107 104 101 95 94 94 85 82 80 86 93 93 86 67 26 23 20 22 27 11 359 347 339 339 8 1 345 337 337 330 317
128 126 126 123 117 112 112 110 109 110 110 106 105 104 103 101 97 93 91 89 91 100 111 119 107 70 22 21 20 21 27 17 3 352 342 340 328 327 335 330 328 319 310
127 125 123 120 118 118 119 113 110 111 113 115 113 113 114 110 102 98 97 94 96 103 127 137 130 88 0 8 20 29 15 7 355 349 349 325 295 302 324 326 321 318 310
120 120 116 113 115 120 116 111 113 112 117 123 123 122 118 117 116 121 121 104 113 129 128 126 156 156 333 350 11 25 16 360 344 336 333 323 309 308 314 298 295 304 302
120 119 117 118 125 123 116 115 115 125 133 125 117 116 120 130 132 110 68 73 86 87 92 111 112 150 337 353 5 14 14 337 328 327 322 315 319 319 315 302 257 262 279
124 123 119 117 118 121 119 117 127 136 124 117 112 114 126 133 109 79 54 57 78 86 75 74 43 13 7 12 8 15 13 4 327 312 309 309 318 322 323 319 303 303 305
131 125 122 115 109 114 119 125 140 128 115 110 115 119 110 93 91 93 86 68 65 80 76 81 69 13 358 354 6 8 360 358 343 305 308 316 326 333 335 338 342 342 342
133 128 124 120 119 120 123 134 136 123 116 120 132 128 110 92 79 85 95 96 86 83 77 73 64 6 339 342 345 343 338 342 341 332 325 331 343 356 351 347 348 343 328
130 129 132 135 139 132 128 134 134 125 124 134 144 147 135 130 114 96 93 112 129 156 143 148 151 83 326 310 324 324 321 320 312 324 338 354 350 354 350 345 345 346 352
131 131 136 140 144 142 143 155 155 142 138 139 157 158 149 144 141 127 75 52 118 119 127 161 182 251 265 301 323 330 330 332 331 12 4 345 344 347 348 348 348 351 353